[[{"header":{"parameterUnit":"m.s-1","parameterCategory":1,"la1":30.2991,"la2":30.254,"lo1":-89.0895,"lo2":-89.0444,"dy":0.0017,"dx":0.0017,"nx":28,"ny":28,"refTime":"2025-04-10T03:00:00:Z","depth":0,"parameterNumber":2,"parameterNumberName":"U-component_of_WINDS"},"data":[0,0,0,0,0,0,0,0,0,0,0,0,0,0,0,0,0,0,0,0,0,0,0,0,0,0,0,0,0,0,0,0,0,0,0,0,0,0,0,0,0,0,0,0,0,0,0,0,0,0,0,0,0,0,0,0,0,0,2.9501,2.9504,0,2.9742,2.9745,2.9747,2.9786,2.9784,2.9782,2.978,3.0029,3.0037,3.0046,0,0,0,0,0,0,0,0,0,0,0,0,0,2.9079,2.9086,2.9501,2.9504,2.9507,2.9741,2.9745,2.9748,2.9787,2.9784,2.9782,2.9779,3.0026,3.0036,3.0046,0,0,0,0,0,0,0,0,0,0,0,0,0,2.9285,2.9089,2.9501,2.9555,2.9562,2.9741,2.9745,2.9749,2.9787,2.9784,2.9781,2.9778,3.0023,3.0035,3.0048,3.019,0,0,3.0087,3.0093,0,0,0,0,0,0,0,0,2.9273,2.9301,2.9544,2.9551,2.956,2.9731,2.9687,2.9897,2.9788,2.9702,2.978,2.9777,2.9932,2.9952,3.0005,3.0202,3.0212,3.0088,3.0096,3.0102,3.0105,0,0,0,0,0,0,0,2.9259,2.929,2.9596,2.9547,2.9557,2.9568,2.9594,2.9727,2.9832,2.9709,2.9713,2.974,2.9936,2.9992,3.0011,3.0216,3.0088,3.0099,3.0107,3.0112,3.0544,3.0547,0,0,0,0,0,0,2.9235,2.9278,2.9589,2.9604,2.9406,2.9578,2.9607,2.9679,2.9831,2.9851,2.9743,2.9741,2.9972,2.9996,3.002,3.0197,3.0101,3.0113,3.0121,3.054,3.0544,3.0548,0,0,0,0,0,0,2.9225,2.9262,2.9579,2.9442,2.9483,2.9589,2.9669,2.9686,2.9741,2.9856,2.9875,2.978,2.997,3.0001,3.0148,3.0206,3.0119,3.0131,3.0535,3.0541,3.0546,3.0551,0,0,0,0,0,0,2.9213,2.9258,2.9312,2.9443,2.949,2.9702,2.9673,2.9693,2.9763,2.9764,2.9896,2.9915,2.997,3.0128,3.016,3.0222,3.0141,3.0531,3.0538,3.0545,3.0546,3.0556,3.0565,0,0,0,0,0,2.9198,2.9304,2.9315,2.9352,2.956,2.9705,2.9732,2.9793,2.9768,2.9824,2.9898,2.9911,3.0194,3.0143,3.0179,3.0246,3.0527,3.0536,3.0544,3.0542,3.0554,3.0565,0,0,0,0,0,0,2.9178,2.9322,2.9336,2.9488,2.9584,2.9711,2.9784,2.9803,2.9909,2.9905,2.9976,3.0006,3.0148,3.0212,3.0152,3.0392,3.0359,3.0375,3.0345,3.0358,3.0367,3.0348,3.0152,0,0,0,0,0,2.9192,2.9296,2.9417,2.954,2.9587,2.9677,2.9743,2.9781,2.9884,2.9925,3.0009,3.0109,3.0221,3.0293,3.0402,3.0556,3.0586,3.062,3.0629,3.0636,3.0649,3.0737,3.0753,3.0576,3.0576,3.0576,0,0,2.922,2.9312,2.9374,2.9538,2.9617,2.9725,2.9711,2.9826,2.9907,2.9942,3.0085,3.0151,3.0267,3.0418,3.0489,3.0476,3.0705,3.0647,3.0652,3.0661,3.0747,3.0764,3.0778,3.0582,3.0581,3.058,0,0,2.9327,2.9407,2.9518,2.9598,2.9718,2.9777,2.9804,2.993,2.9974,3.0119,3.0148,3.0246,3.0437,3.0519,3.0586,3.0726,3.0743,3.076,3.0808,3.0892,3.0906,3.0919,3.0969,3.0987,3.0773,3.0773,3.0773,0,2.9348,2.9511,2.9573,2.9687,2.9759,2.9796,2.991,2.9984,3.0134,3.0183,3.0166,3.0407,3.0488,3.0659,3.0693,3.0746,3.0779,3.0744,3.0899,3.0912,3.0925,3.0974,3.0993,3.0774,3.0774,3.0774,3.0773,0,2.953,2.9643,2.9719,2.9862,2.9943,3.0056,3.0136,3.021,3.0242,3.0304,3.0451,3.055,3.068,3.0724,3.0756,3.0901,3.0888,3.0884,3.0853,3.0942,3.099,3.1009,3.0776,3.0775,3.0775,3.0775,0,0,2.963,2.9807,2.9834,2.99,3.0036,3.0125,3.0241,3.0368,3.043,3.0533,3.0632,3.0794,3.0791,3.0867,3.0909,3.0983,3.1089,3.097,3.0974,3.0989,3.1255,3.1256,3.1277,3.1101,3.1105,3.1108,3.1245,0,2.9753,2.9959,3.002,3.0194,3.0299,3.0337,3.0438,3.0533,3.0595,3.0694,3.0762,3.0875,3.0863,3.091,3.0985,3.106,3.1143,3.1051,3.1195,3.1199,3.1164,3.1302,3.1304,3.1428,3.1264,3.1267,3.1269,0,2.9924,3.0029,3.0213,3.0337,3.0384,3.0473,3.0595,3.069,3.0799,3.0839,3.0924,3.096,3.1083,3.1045,3.1217,3.1153,3.1216,3.1262,3.1269,3.1284,3.1239,3.132,3.1469,3.1487,3.1299,3.1296,3.1294,0,2.9978,3.0166,3.0301,3.0357,3.0504,3.0566,3.0631,3.0737,3.081,3.0917,3.0966,3.1086,3.1152,3.1245,3.1313,3.1279,3.1479,3.1447,3.1516,3.1515,3.1556,3.1552,3.1716,3.1597,3.1597,3.1596,3.1596,0,3.0108,3.022,3.0328,3.041,3.0537,3.0606,3.073,3.0796,3.0891,3.0988,3.1029,3.112,3.1205,3.1308,3.1362,3.1496,3.1526,3.1562,3.1575,3.1558,3.1554,3.16,3.1593,3.1601,3.16,3.1599,3.1598,0,3.0189,3.0266,3.0416,3.0544,3.0579,3.0666,3.0777,3.0859,3.0923,3.1046,3.1079,3.1178,3.1302,3.1379,3.1536,3.1572,3.172,3.173,3.1683,3.1689,3.1754,3.1747,3.1953,3.1984,3.1844,3.1845,3.1846,0,3.0267,3.0354,3.0491,3.0559,3.0624,3.0733,3.0808,3.0881,3.0957,3.1089,3.1156,3.1282,3.1386,3.1581,3.1668,3.1789,3.1802,3.1867,3.1821,3.1801,3.1804,3.1797,3.1807,3.1874,3.1875,3.1876,3.1877,0,3.0397,3.0431,3.0537,3.0657,3.0745,3.0843,3.0941,3.0995,3.1084,3.1168,3.1294,3.1375,3.1536,3.166,3.1789,3.1857,3.1882,3.1891,3.1913,3.1896,3.1865,3.1883,3.1703,3.1885,3.1884,3.1884,3.1883,3.1883,3.0479,3.0558,3.0668,3.0785,3.0866,3.0957,3.1042,3.1116,3.1222,3.1358,3.1395,3.1527,3.1636,3.1811,3.1882,3.1987,3.1979,3.2011,3.2019,3.2026,3.2027,3.1849,3.2011,3.2011,3.2011,3.2011,3.2011,0,3.0611,3.0684,3.0791,3.0927,3.1019,3.1035,3.1145,3.1222,3.1337,3.1437,3.1539,3.1685,3.1806,3.1904,3.2029,3.2095,3.211,3.2125,3.2121,3.2137,3.2028,3.1996,3.2111,3.2111,3.2111,3.2111,3.2111,3.2111,3.069,3.0825,3.0873,3.1049,3.1122,3.1251,3.1313,3.1398,3.1477,3.1638,3.1739,3.1802,3.1901,3.2035,3.2148,3.2173,3.2218,3.2231,3.2259,3.2155,3.2144,3.2133,3.2104,3.224,3.224,3.2359,3.236,3.2361]},{"header":{"parameterUnit":"m.s-1","parameterCategory":1,"la1":30.2991,"la2":30.254,"lo1":-89.0895,"lo2":-89.0444,"dy":0.0017,"dx":0.0017,"nx":28,"ny":28,"refTime":"2025-04-10T03:00:00:Z","depth":0,"parameterNumber":3,"parameterNumberName":"V-component_of_WINDS"},"data":[0,0,0,0,0,0,0,0,0,0,0,0,0,0,0,0,0,0,0,0,0,0,0,0,0,0,0,0,0,0,0,0,0,0,0,0,0,0,0,0,0,0,0,0,0,0,0,0,0,0,0,0,0,0,0,0,0,0,3.8184,3.8187,0,3.8429,3.8431,3.8434,3.8459,3.8456,3.8454,3.8452,3.8699,3.8708,3.8717,0,0,0,0,0,0,0,0,0,0,0,0,0,3.7737,3.7745,3.8184,3.8187,3.819,3.8428,3.8431,3.8435,3.8459,3.8456,3.8453,3.845,3.8696,3.8707,3.8717,0,0,0,0,0,0,0,0,0,0,0,0,0,3.7951,3.7748,3.8184,3.8231,3.8238,3.8427,3.8432,3.8436,3.846,3.8456,3.8453,3.8449,3.8693,3.8706,3.8719,3.8877,0,0,3.876,3.8766,0,0,0,0,0,0,0,0,3.7939,3.7968,3.8221,3.8228,3.8236,3.841,3.8365,3.8583,3.8461,3.8376,3.8452,3.8447,3.8606,3.8626,3.868,3.8888,3.8899,3.8761,3.8769,3.8775,3.8779,0,0,0,0,0,0,0,3.7924,3.7957,3.8281,3.8225,3.8234,3.824,3.8266,3.8406,3.8509,3.8383,3.8385,3.8414,3.8609,3.8667,3.8686,3.8903,3.8761,3.8773,3.8781,3.8786,3.9254,3.9258,0,0,0,0,0,0,3.7901,3.7945,3.8273,3.8288,3.8075,3.8251,3.828,3.8358,3.8507,3.8526,3.8417,3.8414,3.8646,3.867,3.8695,3.8891,3.8775,3.8787,3.8795,3.925,3.9255,3.926,0,0,0,0,0,0,3.7891,3.793,3.8263,3.8117,3.816,3.8263,3.8349,3.8364,3.8423,3.8533,3.8551,3.8458,3.8644,3.8676,3.8832,3.8899,3.8793,3.8806,3.9244,3.9251,3.9257,3.9283,0,0,0,0,0,0,3.7878,3.7926,3.7988,3.8118,3.8168,3.8397,3.8353,3.8372,3.8446,3.8445,3.8576,3.8594,3.8643,3.8812,3.8845,3.8916,3.8816,3.9239,3.9247,3.9255,3.9276,3.9289,3.93,0,0,0,0,0,3.7862,3.7984,3.7991,3.803,3.8247,3.8401,3.8429,3.8484,3.8451,3.8514,3.8585,3.859,3.8886,3.8827,3.8865,3.8941,3.9235,3.9245,3.9255,3.9271,3.9287,3.93,0,0,0,0,0,0,3.7858,3.8002,3.8011,3.8179,3.8278,3.8405,3.8485,3.8499,3.8608,3.8602,3.8665,3.8694,3.8848,3.891,3.8842,3.9102,3.9057,3.9075,3.9057,3.9073,3.9084,3.9067,3.8827,0,0,0,0,0,3.7876,3.799,3.811,3.8247,3.8296,3.8382,3.8451,3.8485,3.8589,3.8631,3.8713,3.8813,3.8929,3.9004,3.9117,3.9285,3.9314,3.9356,3.9368,3.9377,3.9392,3.9487,3.9507,3.9292,3.9292,3.9292,0,0,3.7916,3.8009,3.8077,3.8248,3.8328,3.8444,3.8417,3.854,3.8627,3.8649,3.8802,3.8866,3.8982,3.9145,3.9221,3.9201,3.9458,3.939,3.9396,3.9407,3.9499,3.9519,3.9537,3.9299,3.9298,3.9297,0,0,3.8048,3.8129,3.8253,3.8334,3.8457,3.8513,3.8543,3.8669,3.8712,3.8867,3.8886,3.8989,3.9187,3.927,3.9337,3.9501,3.951,3.9536,3.9599,3.9691,3.9707,3.9723,3.9782,3.9803,3.955,3.955,3.955,0,3.8082,3.8258,3.8314,3.8439,3.8513,3.854,3.8666,3.8741,3.8894,3.8945,3.892,3.917,3.925,3.9433,3.9473,3.9527,3.9563,3.9521,3.9701,3.9717,3.9732,3.9789,3.9811,3.9552,3.9552,3.9552,3.9552,0,3.8294,3.8415,3.85,3.8649,3.8733,3.8857,3.8932,3.901,3.9037,3.9096,3.9253,3.935,3.9483,3.9529,3.9555,3.9716,3.9701,3.9688,3.9644,3.9754,3.9809,3.9831,3.9556,3.9555,3.9554,3.9554,0,0,3.843,3.8608,3.8639,3.8707,3.8844,3.8939,3.9064,3.9195,3.9262,3.9365,3.9472,3.9639,3.9629,3.9706,3.9742,3.9822,3.9946,3.9799,3.9803,3.9824,4.013,4.014,4.0164,3.9953,3.9957,3.996,4.0121,0,3.8578,3.8803,3.8858,3.905,3.9163,3.919,3.9299,3.9395,3.9453,3.9557,3.9621,3.974,3.9716,3.9763,3.9843,3.9914,4.0009,3.9903,4.0052,4.0057,4.0024,4.0193,4.0204,4.035,4.0143,4.0146,4.0149,0,3.8781,3.8891,3.9095,3.9218,3.9268,3.9365,3.949,3.959,3.9699,3.9735,3.9822,3.985,3.9981,3.9929,4.011,4.0037,4.0101,4.0145,4.0152,4.0169,4.011,4.0215,4.0399,4.0421,4.0183,4.018,4.0178,0,3.8862,3.906,3.9208,3.9265,3.9413,3.948,3.9545,3.965,3.9726,3.9835,3.9885,4.0007,4.0074,4.0167,4.0228,4.0185,4.0404,4.0358,4.0439,4.0437,4.0485,4.0481,4.0682,4.0524,4.0524,4.0523,4.0523,0,3.9022,3.9146,3.9247,3.9338,3.9477,3.9539,3.9675,3.9739,3.9833,3.9937,3.9966,4.0063,4.0136,4.0243,4.0291,4.0434,4.0464,4.0497,4.0508,4.0495,4.0491,4.0539,4.0531,4.0529,4.0528,4.0527,4.0526,0,3.9136,3.9208,3.9371,3.9498,3.9532,3.963,3.9738,3.9827,3.9886,4.0017,4.0051,4.0144,4.0271,4.034,4.0499,4.0531,4.0692,4.0697,4.0656,4.0661,4.0738,4.073,4.0978,4.1014,4.083,4.0832,4.0833,0,3.9234,3.933,3.9467,3.9539,3.9605,3.9721,3.9799,3.9863,3.9943,4.0075,4.0148,4.0277,4.0384,4.0585,4.0666,4.0788,4.0797,4.0875,4.0816,4.08,4.08,4.0794,4.0804,4.0886,4.0888,4.0889,4.089,0,3.9401,3.9432,3.9544,3.9669,3.9761,3.9862,3.9962,4.0019,4.01,4.0188,4.0319,4.0402,4.0565,4.0692,4.0821,4.0886,4.0902,4.0908,4.0934,4.0922,4.0894,4.0911,4.0685,4.0902,4.0901,4.09,4.09,4.0899,3.9511,3.9598,3.9709,3.9832,3.9914,4.0007,4.0098,4.0169,4.028,4.0418,4.0449,4.0587,4.0694,4.0868,4.0937,4.1046,4.1031,4.1067,4.1077,4.1085,4.1089,4.0876,4.1069,4.1069,4.1069,4.1068,4.1068,0,3.968,3.9753,3.9866,4.0006,4.0103,4.011,4.0222,4.0302,4.0424,4.0523,4.0628,4.0779,4.0903,4.0994,4.112,4.119,4.1201,4.1221,4.1217,4.1232,4.1094,4.106,4.1211,4.1211,4.1211,4.1211,4.121,4.121,3.978,3.9928,3.9973,4.0162,4.0234,4.0371,4.0434,4.052,4.0599,4.0767,4.0871,4.0929,4.1025,4.1159,4.1274,4.1297,4.1343,4.1363,4.1387,4.1257,4.1242,4.1227,4.1196,4.1372,4.1372,4.1516,4.1518,4.1519]}]]